Terug naar catalogus

HINCUBE

ActiefWetenschapSSO
NORAD 39445·PAYLOAD·🇳🇴 Norway

Gelanceerd Nov 21, 2013 vanaf Dombarovsky

Loading…

Volgende Passages (komende 24 uur)

TLE

VersSource: Space-Track

Epoch: Sep 14, 2026, 21:11 UTC

1 39445U 13066AF  26257.88297583  .00006290  00000-0  39449-3 0  9992
2 39445  97.8074 227.8651 0030531 265.6540  94.1200 15.09310508693054

Volg HINCUBE in realtime met AllMySat

Download on the App Store